Weather in Agacoren

Kazakhstan     53°27′11″N   74°14′20″E
temp.,
°C
wind,
m/s
gust,
m/s
humid.,
%
clouds,
%
prec.,
mm/h
press.,
hPa
HPBL,
m
19 may, wed
wed1900:00+16nnw227311 0.1 100924
03:00+15nnw478733 1.0 1009211
06:00+14nne59859 1.7 1011515
09:00+13nne81078100 0.0 1013771
12:00+17nne7847100 0.0 10141806
15:00+16nne6104066 0.0 10161971
18:00+19n893044 0.0 10152459
21:00+15nne611375 0.0 1017353
20 may, thu
thu2000:00+11ene33455 0.0 101937
03:00+9wnw224524 0.0 101911
06:00+9n48535 0.0 1020211
09:00+12n6845100 0.0 10211004
12:00+15n67315 0.0 10221709
15:00+17n672613 0.0 10212045
18:00+17n5730100 0.0 10212112
21:00+14ne4535100 0.0 1023515
21 may, fri
fri2100:00+12ese3339100 0.0 1023329
03:00+10s4559100 0.6 1023418
06:00+8sse6872100 1.7 1023334
09:00+9sse71269100 0.1 1022428
12:00+10sse896799 0.1 1022546
15:00+13sse665797 0.0 1022620
18:00+14ese655563 0.0 1021579
21:00+11ese48680 0.0 1023286
22 may, sat
sat2200:00+9ese47791 0.0 1024146
03:00+8ese37835 0.0 1024122
06:00+8ese37805 0.0 1025163
09:00+15se45505 0.0 1026529
12:00+19sse55335 0.0 10251095
15:00+22sse44264 0.0 10251408
18:00+23sse44242 0.0 10241404
21:00+18sse45330 0.0 102458
23 may, sun
sun2300:00+16sse46315 0.0 102594
03:00+14sse48320 0.0 1024130
06:00+13s49360 0.0 1024167
09:00+20s68220 0.0 1024537
12:00+24s672026 0.0 10231052
15:00+26ssw67200 0.0 10211446
18:00+27ssw6621100 0.0 10191755
21:00+22wsw2435100 0.0 101856